This demonstration page uses our WeatherBlox Daily Observations layout. Learn more.

Left ArrowRight Arrow

41.12389, -100.76542

Hourly Observations for March 13, 2019

Temp ( °F °C ) Dew Point ( °F °C ) Humidity (%) Winds ( mph kmh ) Pressure ( in mb ) Visibility ( mi km ) Precip ( " mm )
12:53 am 00:53 Mostly Cloudy with Fog 44 6.7 44 6.7 100 100 ESE 9 15 29.54 1001 1 1 0.00 0.00
1:21 am 01:21 Mostly Cloudy with Light Rain 45 7.2 44 6.7 97 97 SE 10 17 29.54 1000 1 2 0.01 0.25
1:32 am 01:32 Mostly Cloudy with Fog 45 7.2 44 6.7 97 97 ESE 9 15 29.53 1000 1 1 0.01 0.25
1:53 am 01:53 Mostly Cloudy with Fog 46 7.8 46 7.8 100 100 SE 9 15 29.49 999 1 1 0.01 0.25
2:02 am 02:02 Mostly Cloudy with Nearby Thunderstorms 47 8.3 46 7.8 97 97 SSE 7 11 29.53 1000 1 1 0.07 1.78
2:09 am 02:09 Cloudy with Nearby Thunderstorms 47 8.3 46 7.8 97 97 SE 8 13 29.52 1000 2 2 0.08 2.03
2:12 am 02:12 Cloudy with Light Rain 47 8.3 46 7.8 97 97 SSE 8 13 29.52 1000 2 3 0.08 2.03
2:24 am 02:24 Cloudy with Light Rain 46 7.8 45 7.2 96 96 SSE 6 9 29.53 1000 1 2 0.08 2.03
2:47 am 02:47 Mostly Cloudy with Nearby Thunderstorms 45 7 45 7 100 100 ESE 7 11 29.52 999 1 1 0.11 2.79
2:53 am 02:53 Mostly Cloudy with Nearby Thunderstorms 44 6.7 44 6.7 100 100 ESE 8 13 29.49 999 1 1 0.12 3.05
3:02 am 03:02 Mostly Cloudy with Rain 45 7.2 44 6.7 97 97 ESE 10 17 29.49 999 1 2 0.02 0.51
3:10 am 03:10 Cloudy with Heavy Rain 46 7.8 45 7.2 96 96 ESE 9 15 29.47 998 2 3 0.07 1.78
3:19 am 03:19 Cloudy with Light Rain 46 7.8 45 7.2 96 96 ESE 8 13 29.46 998 5 8 0.10 2.54
3:53 am 03:53 Cloudy with Rain 46 7.8 46 7.8 100 100 ESE 14 22 29.42 996 4 6 0.16 4.06
4:20 am 04:20 Cloudy with Light Rain 46 7.8 45 7.2 96 96 SE 13 20 29.41 996 2 3 0.03 0.76
4:26 am 04:26 Mostly Cloudy with Light Rain 45 7.2 45 7.2 100 100 ESE 13 20 29.40 996 1 1 0.03 0.76
4:53 am 04:53 Mostly Cloudy with Light Rain 46 7.8 45 7.2 96 96 SE 12 19 29.36 994 1 1 0.05 1.27
5:24 am 05:24 Cloudy with Light Rain 45 7.2 44 6.7 97 97 SE 12 19 29.37 995 1 2 0.04 1.02
5:28 am 05:28 Cloudy with Rain 45 7.2 45 7.2 100 100 SE 10 17 29.37 995 2 3 0.05 1.27
5:38 am 05:38 Cloudy with Light Rain 45 7.2 45 7.2 100 100 SE 10 17 29.36 994 5 8 0.07 1.78
5:46 am 05:46 Cloudy with Rain 45 7.2 45 7.2 100 100 SE 12 19 29.35 994 4 6 0.08 2.03
5:53 am 05:53 Cloudy with Rain 45 7.2 45 7.2 100 100 ESE 10 17 29.32 993 3 5 0.10 2.54
6:17 am 06:17 Cloudy with Light Rain 45 7.2 45 7.2 100 100 SE 14 22 29.33 993 2 3 0.03 0.76
6:28 am 06:28 Cloudy with Light Rain 46 7.8 45 7.2 96 96 SE 14 22 29.33 993 2 3 0.03 0.76
6:35 am 06:35 Cloudy with Light Rain 46 7.8 45 7.2 96 96 SE 14 22 29.33 993 2 2 0.04 1.02
6:42 am 06:42 Mostly Cloudy with Mist and Fog 46 7.8 45 7.2 96 96 SE 15 24 29.32 993 1 2 0.04 1.02
6:49 am 06:49 Mostly Cloudy with Mist and Fog 46 8 45 7 93 93 SE 12 19 29.30 992 1 1 0.04 1.02
6:53 am 06:53 Mostly Cloudy with Mist and Fog 46 7.8 45 7.2 96 96 SE 12 19 29.27 991 1 1 0.04 1.02
7:06 am 07:06 Cloudy with Mist and Fog 47 8.3 47 8.3 100 100 ESE 12 19 29.28 992 2 2 0.00 0.00
7:11 am 07:11 Cloudy with Mist and Fog 47 8.3 47 8.3 100 100 ESE 12 19 29.28 992 3 5 0.00 0.00
7:20 am 07:20 Cloudy with Mist and Fog 47 8.3 47 8.3 100 100 ESE 12 19 29.28 992 2 3 0.00 0.00
7:28 am 07:28 Mostly Cloudy with Mist and Fog 48 8.9 47 8.3 96 96 ESE 13 20 29.27 991 1 1 0.00 0.00
7:53 am 07:53 Mostly Cloudy with Fog 46 7.8 46 7.8 100 100 ESE 12 19 29.24 990 1 1 0.00 0.00
8:14 am 08:14 Cloudy with Light Rain 46 7.8 45 7.2 96 96 ESE 13 20 29.24 990 2 2 0.00 0.03
8:21 am 08:21 Cloudy with Light Rain 46 7.8 46 7.8 100 100 ESE 14 22 29.24 990 3 5 0.01 0.25
8:53 am 08:53 Cloudy with Light Rain 46 7.8 45 7.2 96 96 ESE 14 22 29.19 988 5 8 0.04 1.02
9:11 am 09:11 Cloudy with Light Rain 46 7.8 45 7.2 96 96 ESE 13 20 29.18 988 5 8 0.02 0.51
9:53 am 09:53 Cloudy with Light Rain 47 8.3 46 7.8 97 97 SE 15 24 29.13 987 5 8 0.06 1.52
10:06 am 10:06 Cloudy with Rain 47 8.3 46 7.8 97 97 SE 15 24 29.14 987 3 4 0.03 0.76
10:12 am 10:12 Cloudy with Heavy Rain 47 8.3 46 7.8 97 97 SE 13 20 29.14 987 2 2 0.07 1.78
10:14 am 10:14 Cloudy with Heavy Rain 47 8.3 46 7.8 97 97 SE 13 20 29.13 986 1 2 0.09 2.29
10:24 am 10:24 Cloudy with Light Rain 47 8.3 47 8.3 100 100 E 16 26 29.12 986 2 3 0.15 3.81
10:33 am 10:33 Cloudy with Light Rain 47 8.3 46 7.8 97 97 ESE 14 22 29.10 985 3 5 0.16 4.06
10:42 am 10:42 Cloudy with Light Rain 47 8.3 46 7.8 97 97 E 18 30 29.06 984 2 3 0.16 4.06
10:49 am 10:49 Cloudy with Light Rain 46 8 46 8 100 100 E 18 30 29.05 984 2 3 0.16 4.06
10:53 am 10:53 Cloudy with Mist and Fog 47 8.3 46 7.8 97 97 E 17 28 29.04 983 3 4 0.16 4.06
11:02 am 11:02 Cloudy with Mist and Fog 47 8.3 46 7.8 97 97 E 20 31 29.05 984 6 10 0.00 0.00
11:28 am 11:28 Cloudy with Light Rain 47 8.3 46 7.8 97 97 ESE 15 24 29.08 985 2 3 0.01 0.25
11:40 am 11:40 Cloudy with Light Rain 47 8.3 46 7.8 97 97 E 20 31 29.06 984 1 2 0.01 0.25
11:49 am 11:49 Cloudy with Light Rain 46 8 45 7 93 93 E 18 30 29.06 984 2 3 0.01 0.25
11:53 am 11:53 Cloudy with Light Rain 47 8.3 45 7.2 93 93 E 17 28 29.03 983 2 3 0.01 0.25
12:14 pm 12:14 Cloudy with Light Rain 46 7.8 44 6.7 93 93 E 17 28 29.05 984 2 3 0.01 0.25
12:33 pm 12:33 Cloudy with Mist and Fog 45 7.2 44 6.7 97 97 ENE 18 30 29.03 983 4 6 0.01 0.25
12:43 pm 12:43 Cloudy with Light Rain 45 7.2 44 6.7 97 97 ENE 17 28 29.02 983 3 5 0.01 0.25
12:53 pm 12:53 Cloudy with Rain 45 7.2 43 6.1 93 93 ENE 18 30 29.00 982 3 4 0.02 0.51
1:03 pm 13:03 Cloudy with Rain 46 7.8 44 6.7 93 93 S 16 26 29.06 984 2 3 0.04 1.02
1:09 pm 13:09 Cloudy with Rain 48 8.9 44 6.7 86 86 ESE 9 15 29.04 983 2 3 0.07 1.78
1:15 pm 13:15 Cloudy with Light Rain 48 8.9 45 7.2 89 89 ENE 6 9 29.04 983 4 6 0.08 2.03
1:27 pm 13:27 Cloudy with Rain 47 8.3 44 6.7 90 90 ENE 6 9 29.04 983 4 6 0.09 2.29
1:39 pm 13:39 Cloudy with Rain 47 8.3 44 6.7 90 90 NE 7 11 29.03 983 3 4 0.12 3.05
1:53 pm 13:53 Cloudy with Light Rain 45 7.2 43 6.1 93 93 NNE 16 26 29.01 982 5 8 0.15 3.81
2:25 pm 14:25 Cloudy with Light Rain 41 5 39 3.9 93 93 NNE 21 33 29.07 984 10 16 0.02 0.51
2:53 pm 14:53 Cloudy with Light Rain 39 3.9 37 2.8 93 93 NE 26 43 29.02 983 9 14 0.03 0.76
3:41 pm 15:41 Cloudy with Light Rain 39 3.9 36 2.2 89 89 NE 26 43 29.08 985 10 16 0.01 0.25
3:53 pm 15:53 Cloudy 39 3.9 36 2.2 89 89 NNE 28 44 29.00 982 10 16 0.01 0.25
4:53 pm 16:53 Cloudy with Light Rain 37 2.8 34 1.1 89 89 NNE 33 54 29.05 984 8 13 0.00 0.03
5:44 pm 17:44 Cloudy with Rain 34 1.1 31 -0.6 89 89 NNE 31 50 29.16 987 3 5 0.00 0.03
5:53 pm 17:53 Cloudy with Light Rain 34 1.1 31 -0.6 89 89 NNE 30 48 29.09 985 4 6 0.02 0.51
6:29 pm 18:29 Windy with Snow Likely 34 1.1 30 -1.1 85 85 NNE 36 57 29.19 988 2 3 0.00 0.03
6:36 pm 18:36 Windy with Snow Likely 33 0.6 30 -1.1 89 89 NNE 33 54 29.19 989 1 2 0.00 0.03
6:46 pm 18:46 Cloudy with Fog 33 0.6 30 -1.1 89 89 NNE 33 54 29.20 989 1 1 0.00 0.03
6:53 pm 18:53 Cloudy with Snow 32 0 29 -1.7 88 88 NNE 35 56 29.14 987 1 1 0.00 0.03
7:02 pm 19:02 Windy with Snow Likely 32 0 28 -2.2 85 85 NNE 33 54 29.23 990 2 2 0.00 0.03
7:06 pm 19:06 Windy with Snow Likely 32 0 28 -2.2 85 85 NNE 37 59 29.23 990 3 5 0.01 0.25
7:53 pm 19:53 Cloudy with Light Wintry Mix 31 -0.6 27 -2.8 85 85 NNE 37 59 29.17 988 10 16 0.01 0.25
8:53 pm 20:53 Cloudy 31 -0.6 25 -3.9 79 79 NNE 39 63 29.19 988 10 16 0.00 0.03
9:53 pm 21:53 Cloudy 31 -0.6 25 -3.9 79 79 N 41 67 29.21 989 10 16 0.00 0.00
10:53 pm 22:53 Cloudy 31 -0.6 25 -3.9 79 79 N 36 57 29.24 990 10 16 0.00 0.00
11:53 pm 23:53 Cloudy 31 -0.6 25 -3.9 79 79 N 39 63 29.27 991 10 16 0.00 0.00

Powered by AerisWeather